Holland, MI

3:39 PM EST on February 20, 2017 (GMT -0500)
Tulip City

Weather History for KBIV - December, 2014

Change the Weather History Date:

Monday, December 22, 2014

  Actual Average Record
Temperature  
Mean Temperature 34 °F 30 °F  
Max Temperature 38 °F 35 °F 57 °F (1957)
Min Temperature 29 °F 24 °F -2 °F (1989)
Degree Days  
Heating Degree Days 31 35  
Month to date heating degree days 665 716  
Since 1 July heating degree days 2056 1939  
Cooling Degree Days 0 0  
Month to date cooling degree days 0 0  
Year to date cooling degree days 570 693  
Moisture  
Dew Point 30 °F    
Average Humidity 81    
Maximum Humidity 92    
Minimum Humidity 69    
Precipitation  
Precipitation 0.26 in 0.06 in 1.01 in (1949)
Month to date precipitation 0.64 1.79  
Year to date precipitation 32.81 35.95  
Sea Level Pressure  
Sea Level Pressure 29.91 in    
Wind  
Wind Speed 12 mph (ESE)    
Max Wind Speed 18 mph    
Max Gust Speed 25 mph    
Visibility 6 miles    
Events Rain    
T = Trace of Precipitation, MM = Missing Value Source: NWS Daily Summary

Daily Weather History Graph

Daily Weather History Graph

Search for Another Location

Airport or City:

Trip Planner

Search our weather history database for the weather conditions in past years. The results will help you decide how hot, cold, wet, or windy it might be!

Date:

Astronomy

Dec. 22, 2014 Rise Set
Actual Time 8:12 AM EST 5:14 PM EST
Civil Twilight 7:39 AM EST 5:46 PM EST
Nautical Twilight 7:04 AM EST 6:22 PM EST
Astronomical Twilight 6:29 AM EST 6:56 PM EST
Moon 8:22 AM EST (12/22) 6:23 PM EST (12/22)
Length of Visible Light 10h 06m
Length of Day
9h 02m
New Moon, 1% of the Moon is Illuminated
Dec 22
New Moon
Dec 28
First Quarter
Jan 4
Full
Jan 13
Last Quarter
Jan 20
New

Hourly Weather History & Observations

Time (EST) Temp. Windchill Dew Point Humidity Pressure Visibility Wind Dir Wind Speed Gust Speed Precip Events Conditions
12:53 AM 33.1 °F 24.9 °F 25.0 °F 72% 30.10 in 7.0 mi SE 10.4 mph - N/A   Overcast
1:53 AM 30.9 °F 24.3 °F 24.1 °F 76% 30.09 in 7.0 mi SE 6.9 mph - N/A   Clear
2:53 AM 32.0 °F 24.2 °F 25.0 °F 75% 30.09 in 7.0 mi SE 9.2 mph - N/A   Mostly Cloudy
3:53 AM 30.9 °F 22.2 °F 24.1 °F 76% 30.07 in 7.0 mi ESE 10.4 mph - N/A   Clear
4:53 AM 30.9 °F 21.7 °F 24.1 °F 76% 30.05 in 7.0 mi ESE 11.5 mph - N/A   Clear
5:53 AM 30.0 °F 20.5 °F 23.0 °F 75% 30.04 in 7.0 mi ESE 11.5 mph - N/A   Clear
6:53 AM 30.0 °F 21.1 °F 23.0 °F 75% 30.04 in 8.0 mi SE 10.4 mph - N/A   Clear
7:53 AM 30.0 °F 21.1 °F 23.0 °F 75% 30.04 in 8.0 mi ESE 10.4 mph - N/A   Clear
8:53 AM 30.0 °F 21.7 °F 23.0 °F 75% 30.02 in 6.0 mi East 9.2 mph - N/A   Haze
9:53 AM 32.0 °F 23.6 °F 25.0 °F 75% 30.02 in 6.0 mi ESE 10.4 mph - N/A   Haze
10:53 AM 33.1 °F 24.4 °F 26.1 °F 75% 29.99 in 6.0 mi East 11.5 mph - N/A   Haze
11:53 AM 36.0 °F 27.1 °F 27.0 °F 70% 29.96 in 7.0 mi ESE 13.8 mph - N/A   Overcast
12:53 PM 36.0 °F 28.0 °F 27.0 °F 70% 29.93 in 8.0 mi ESE 11.5 mph - N/A   Overcast
1:53 PM 37.0 °F 28.9 °F 28.0 °F 70% 29.89 in 9.0 mi ESE 12.7 mph - N/A   Overcast
2:53 PM 37.0 °F 28.9 °F 28.9 °F 73% 29.87 in 6.0 mi East 12.7 mph - 0.00 in Rain Light Rain
3:53 PM 37.0 °F 29.3 °F 30.9 °F 79% 29.86 in 6.0 mi East 11.5 mph - 0.01 in Rain Light Rain
4:53 PM 37.0 °F 28.5 °F 33.1 °F 86% 29.84 in 4.0 mi East 13.8 mph - 0.03 in Rain Light Rain
5:49 PM 37.4 °F 28.5 °F 33.8 °F 87% 29.82 in 6.0 mi East 15.0 mph - 0.03 in Rain Light Rain
5:53 PM 37.0 °F 28.5 °F 34.0 °F 89% 29.84 in 5.0 mi East 13.8 mph - 0.03 in Rain Light Rain
6:01 PM 37.0 °F 28.1 °F 33.1 °F 86% 29.81 in 6.0 mi East 15.0 mph - 0.01 in Rain Light Rain
6:53 PM 37.0 °F 28.5 °F 33.1 °F 86% 29.83 in 5.0 mi East 13.8 mph - 0.05 in Rain Light Rain
7:53 PM 37.0 °F 27.7 °F 35.1 °F 93% 29.82 in 5.0 mi East 16.1 mph - 0.03 in Rain Light Rain
8:53 PM 37.0 °F 28.1 °F 35.1 °F 93% 29.81 in 5.0 mi East 15.0 mph - 0.05 in Rain Light Rain
9:53 PM 37.9 °F 29.6 °F 36.0 °F 93% 29.79 in 5.0 mi East 13.8 mph - 0.02 in Rain Light Rain
10:24 PM 37.9 °F 29.6 °F 36.0 °F 93% 29.76 in 5.0 mi ESE 13.8 mph - 0.01 in Rain Light Rain
10:45 PM 37.9 °F 29.2 °F 36.0 °F 93% 29.75 in 4.0 mi East 15.0 mph - 0.02 in Rain Light Rain
10:53 PM 37.9 °F 29.2 °F 36.0 °F 93% 29.77 in 4.0 mi East 15.0 mph - 0.02 in Rain Light Rain
11:09 PM 37.9 °F 29.2 °F 36.0 °F 93% 29.75 in 4.0 mi East 15.0 mph - 0.01 in Rain Light Rain
11:53 PM 37.9 °F 29.2 °F 36.0 °F 93% 29.76 in 5.0 mi East 15.0 mph - 0.02 in Rain Light Rain